Milwaukee, WI

12:15 AM CST on February 22, 2017 (GMT -0600)
Timmerman

Weather History for KMWC - February, 2012

Change the Weather History Date:

Tuesday, February 7, 2012

  Actual Average Record
Temperature  
Mean Temperature 27 °F -  
Max Temperature 33 °F 29 °F 51 °F (2009)
Min Temperature 21 °F 13 °F -10 °F (1972)
Degree Days  
Heating Degree Days 38    
Moisture  
Dew Point 21 °F    
Average Humidity 77    
Maximum Humidity 93    
Minimum Humidity 64    
Precipitation  
Precipitation 0.00 in - - ()
Sea Level Pressure  
Sea Level Pressure 30.34 in    
Wind  
Wind Speed 10 mph (North)    
Max Wind Speed 21 mph    
Max Gust Speed 29 mph    
Visibility 9 miles    
Events Snow    
Averages and records for this station are not official NWS values.
T = Trace of Precipitation, MM = Missing Value Source: NWS Daily Summary

Daily Weather History Graph

Daily Weather History Graph

Search for Another Location

Airport or City:

Trip Planner

Search our weather history database for the weather conditions in past years. The results will help you decide how hot, cold, wet, or windy it might be!

Date:

Astronomy

Feb. 07, 2012 Rise Set
Actual Time 7:01 AM CST 5:11 PM CST
Civil Twilight 6:31 AM CST 5:41 PM CST
Nautical Twilight 5:57 AM CST 6:15 PM CST
Astronomical Twilight 5:24 AM CST 6:48 PM CST
Moon 5:24 PM CST (2/7) 6:28 AM CST (2/7)
Length of Visible Light 11h 10m
Length of Day
10h 10m
Full, 100% of the Moon is Illuminated
Feb 7
Full
Feb 7
Full
Feb 14
Last Quarter
Feb 21
New
Feb 29
First Quarter

Hourly Weather History & Observations

Time (CST) Temp. Windchill Dew Point Humidity Pressure Visibility Wind Dir Wind Speed Gust Speed Precip Events Conditions
12:15 AM 26.6 °F 22.6 °F 24.8 °F 93% 30.16 in 7.0 mi WNW 3.5 mph - N/A   Clear
12:35 AM 26.6 °F - 23.0 °F 86% 30.17 in 5.0 mi Calm Calm - N/A   Mostly Cloudy
12:55 AM 28.4 °F - 26.6 °F 93% 30.17 in 7.0 mi Calm Calm - N/A   Overcast
1:55 AM 30.2 °F - 28.4 °F 93% 30.19 in 7.0 mi Calm Calm - N/A   Overcast
2:35 AM 33.8 °F 25.8 °F 32.0 °F 93% 30.20 in 10.0 mi NNE 10.4 mph 18.4 mph N/A   Overcast
2:55 AM 33.8 °F 24.3 °F 30.2 °F 87% 30.20 in 10.0 mi NNE 13.8 mph 19.6 mph N/A   Overcast
3:15 AM 33.8 °F 24.3 °F 30.2 °F 87% 30.21 in 10.0 mi NNE 13.8 mph 24.2 mph N/A   Overcast
3:35 AM 33.8 °F 24.3 °F 30.2 °F 87% 30.21 in 10.0 mi NNE 13.8 mph 18.4 mph N/A   Overcast
3:55 AM 32.0 °F 19.8 °F 30.2 °F 93% 30.22 in 10.0 mi NNE 20.7 mph 24.2 mph N/A   Overcast
4:15 AM 32.0 °F 22.1 °F 28.4 °F 87% 30.23 in 10.0 mi NNE 13.8 mph - N/A   Overcast
4:35 AM 32.0 °F 21.2 °F 28.4 °F 87% 30.23 in 10.0 mi NNE 16.1 mph 26.5 mph N/A   Overcast
4:55 AM 32.0 °F 21.6 °F 28.4 °F 87% 30.24 in 7.0 mi NNE 15.0 mph 25.3 mph N/A Snow Snow
5:15 AM 32.0 °F 20.5 °F 28.4 °F 87% 30.25 in 4.0 mi NNE 18.4 mph 23.0 mph N/A Snow Light Snow
5:35 AM 32.0 °F 20.5 °F 28.4 °F 87% 30.26 in 10.0 mi NNE 18.4 mph 24.2 mph N/A   Overcast
5:55 AM 32.0 °F 21.6 °F 26.6 °F 80% 30.27 in 10.0 mi NNE 15.0 mph 20.7 mph N/A   Overcast
6:45 AM 30.2 °F 19.3 °F 24.8 °F 80% 30.30 in 10.0 mi NNE 15.0 mph 28.8 mph N/A   Overcast
7:45 AM 28.4 °F 15.1 °F 23.0 °F 80% 30.33 in 10.0 mi NNE 20.7 mph 28.8 mph N/A   Overcast
8:45 AM 28.4 °F 15.4 °F 21.2 °F 74% 30.35 in 10.0 mi North 19.6 mph 26.5 mph N/A   Overcast
9:45 AM 28.4 °F 18.5 °F 21.2 °F 74% 30.37 in 10.0 mi NNE 11.5 mph 23.0 mph N/A   Overcast
10:45 AM 28.4 °F 16.6 °F 21.2 °F 74% 30.40 in 10.0 mi NNE 16.1 mph 23.0 mph N/A   Overcast
11:45 AM 28.4 °F 16.2 °F 21.2 °F 74% 30.40 in 10.0 mi North 17.3 mph 23.0 mph N/A   Overcast
12:45 PM 26.6 °F 16.2 °F 19.4 °F 74% 30.38 in 10.0 mi North 11.5 mph 17.3 mph N/A   Overcast
1:45 PM 26.6 °F 13.8 °F 17.6 °F 69% 30.38 in 10.0 mi North 17.3 mph 23.0 mph N/A   Overcast
2:45 PM 26.6 °F 15.2 °F 17.6 °F 69% 30.40 in 10.0 mi North 13.8 mph 20.7 mph N/A   Overcast
3:45 PM 26.6 °F 15.2 °F 17.6 °F 69% 30.41 in 10.0 mi North 13.8 mph 17.3 mph N/A   Overcast
4:45 PM 26.6 °F 15.2 °F 15.8 °F 64% 30.41 in 10.0 mi North 13.8 mph - N/A   Overcast
5:45 PM 24.8 °F 11.5 °F 15.8 °F 69% 30.41 in 10.0 mi North 17.3 mph - N/A   Overcast
6:45 PM 24.8 °F 14.0 °F 14.0 °F 64% 30.43 in 10.0 mi North 11.5 mph 18.4 mph N/A   Overcast
7:45 PM 24.8 °F 14.6 °F 14.0 °F 64% 30.43 in 10.0 mi North 10.4 mph - N/A   Scattered Clouds
8:15 PM 24.8 °F 15.3 °F 14.0 °F 64% 30.42 in 10.0 mi North 9.2 mph - N/A   Mostly Cloudy
8:35 PM 23.0 °F 13.9 °F 14.0 °F 68% 30.42 in 10.0 mi North 8.1 mph - N/A   Overcast
8:45 PM 23.0 °F 14.7 °F 12.2 °F 63% 30.42 in 10.0 mi North 6.9 mph - N/A   Overcast
8:55 PM 23.0 °F 13.9 °F 14.0 °F 68% 30.42 in 10.0 mi NNW 8.1 mph - N/A   Overcast
9:15 PM 23.0 °F 14.7 °F 14.0 °F 68% 30.42 in 10.0 mi NNW 6.9 mph - N/A   Mostly Cloudy
9:35 PM 23.0 °F 14.7 °F 14.0 °F 68% 30.42 in 10.0 mi NNW 6.9 mph - N/A   Mostly Cloudy
9:55 PM 21.2 °F 12.6 °F 14.0 °F 74% 30.42 in 10.0 mi NNW 6.9 mph - N/A   Mostly Cloudy
10:15 PM 21.2 °F 12.6 °F 14.0 °F 74% 30.42 in 10.0 mi NNW 6.9 mph - N/A   Scattered Clouds
10:35 PM 21.2 °F 12.6 °F 14.0 °F 74% 30.42 in 10.0 mi NNW 6.9 mph - N/A   Scattered Clouds
10:55 PM 21.2 °F 13.6 °F 14.0 °F 74% 30.42 in 10.0 mi NNW 5.8 mph - N/A   Mostly Cloudy
11:15 PM 21.2 °F 12.6 °F 14.0 °F 74% 30.42 in 10.0 mi NNW 6.9 mph - N/A   Mostly Cloudy
11:35 PM 21.2 °F 12.6 °F 14.0 °F 74% 30.42 in 10.0 mi NNW 6.9 mph - N/A   Scattered Clouds
11:55 PM 21.2 °F 14.9 °F 14.0 °F 74% 30.42 in 10.0 mi NNW 4.6 mph - N/A   Scattered Clouds